Home > Weather > Colchester > Past weeks

Flag for United Kingdom Weather for the Past 2 Weeks in Colchester, England, United Kingdom

Now
37 °F

Rain. Mostly cloudy.


Feels Like: 27 °F
Forecast: 36 / 51 °F
Wind: 18 mph from West

Location: Luton Airport

Current Time: Apr 28, 2016 at 11:03:56 PM

Latest Report: Apr 28, 2016 at 10:20 PM


Visibility: 1 mi

Pressure: 29.77 "Hg

Humidity: 93%

Dew Point: 36 °F

Location of ColchesterLocation

Historic Weather in Colchester — Graph

°F

Colchester Temperature Yesterday

Maximum temperature yesterday: 50 °F (at 2:20 PM)
Minimum temperature yesterday: 34 °F (at 3:50 AM)
Average temperature yesterday: 41 °F

High & Low Weather Summary for the Past Weeks

 TemperatureHumidityPressure
High59 °F (Apr 14, 1:50 PM)100% (Apr 15, 1:20 AM)30.45 "Hg (Apr 15, 1:20 AM)
Low30 °F (Apr 28, 5:50 AM)40% (Apr 27, 1:20 PM)29.45 "Hg (Apr 15, 5:20 PM)
Average44 °F78%29.98 "Hg
* Reported Apr 13 9:20 PM — Apr 28 9:20 PM, Colchester, Weather by CustomWeather, © 2016

Note: Actual official high and low records may vary slightly from our data, if they occured in-between our weather recording intervals... More about our weather records

Advertising

Colchester Weather History for the Previous 24 Hours

Scroll right to see more
 ConditionsComfort  
Time TempWeatherWind HumidityBarometerVisibility
9:20 PM
Thu, Apr 28
45 °FPassing clouds.13 mph87%29.77 "HgN/A
8:50 PM45 °FQuite cool.14 mph81%29.77 "HgN/A
8:20 PM45 °FQuite cool.14 mph81%29.77 "HgN/A
7:50 PM45 °FScattered clouds.16 mph81%29.77 "HgN/A
7:20 PM48 °FMostly cloudy.18 mph66%29.77 "HgN/A
6:50 PM48 °FPartly sunny.20 mph62%29.80 "HgN/A
6:20 PM48 °FPartly sunny.16 mph62%29.80 "HgN/A
5:50 PM48 °FPartly sunny.16 mph62%29.80 "HgN/A
5:20 PM50 °FOvercast.17 mph54%29.83 "HgN/A
4:50 PM50 °FPartly sunny.18 mph54%29.83 "HgN/A
4:20 PM50 °FOvercast.16 mph50%29.83 "HgN/A
3:50 PM50 °FPartly sunny.15 mph50%29.86 "HgN/A
3:20 PM50 °FOvercast.17 mph50%29.86 "HgN/A
2:50 PM50 °FCool.16 mph43%29.86 "HgN/A
2:20 PM50 °FCool.13 mph47%29.89 "HgN/A
1:20 PM50 °FPartly sunny.15 mph47%29.89 "HgN/A
12:50 PM50 °FPartly sunny.14 mph50%29.89 "HgN/A
12:20 PM48 °FPartly sunny.15 mph50%29.92 "HgN/A
11:50 AM50 °FPartly sunny.12 mph50%29.92 "HgN/A
11:20 AM46 °FScattered clouds.13 mph57%29.92 "HgN/A
10:50 AM46 °FPassing clouds.14 mph53%29.95 "HgN/A
10:20 AM46 °FPassing clouds.14 mph53%29.95 "HgN/A
9:20 AM43 °FQuite cool.12 mph66%29.95 "HgN/A
8:20 AM41 °FQuite cool.8 mph70%29.95 "HgN/A
6:50 AM34 °FChilly.6 mph93%29.92 "HgN/A
6:20 AM32 °FChilly.6 mph93%29.92 "HgN/A
5:50 AM30 °FChilly.7 mph100%29.92 "HgN/A
4:50 AM32 °FChilly.7 mph93%29.92 "HgN/A
4:20 AM34 °FChilly.9 mph93%29.92 "HgN/A
3:50 AM34 °FChilly.9 mph93%29.92 "HgN/A
3:20 AM32 °FChilly.8 mph100%29.92 "HgN/A
2:50 AM32 °FChilly.7 mph100%29.92 "HgN/A
2:20 AM34 °FChilly.9 mph100%29.92 "Hg6 mi
1:50 AM34 °FPassing clouds.5 mph93%29.92 "Hg6 mi
1:20 AM34 °FPassing clouds.6 mph100%29.92 "HgN/A
12:50 AM32 °FChilly.5 mph100%29.92 "Hg6 mi
12:20 AM36 °FChilly.1 mph93%29.92 "HgN/A
11:20 PM
Wed, Apr 27
36 °FPassing clouds.3 mph100%29.92 "HgN/A
Weather by CustomWeather, © 2016

See weather overviewHow to use our weather pages